Simultaneous Nadir Overpasses (SNOs) Predictions

Prediction of SNOs between GOES-14 and AQUA Satellite Orbit:

Table of predicted SNOs for the next 14.0 days since TLE Epoch: 12/25/2021
Index Date Time (GOES-14) GOES-14 Lat,Lon AQUA Lat,Lon Distance(km) Time Diff (sec)
1 12/26/2021 20:33:28 0.00,-104.20 0.05,-104.01 21.89 80
2 12/28/2021 20:21:18 -0.00,-104.21 0.69,-101.06 358.92 80
3 12/29/2021 08:42:34 -0.01,-104.54 0.32,-106.23 191.03 80
4 12/31/2021 08:27:44 -0.00,-104.54 -0.28,-103.26 145.49 80
5 12/31/2021 20:49:06 0.01,-104.20 -0.92,-108.44 482.11 80
6 01/02/2022 08:15:33 0.01,-104.54 -0.89,-100.30 481.68 80
7 01/02/2022 20:36:56 0.01,-104.20 -0.24,-105.49 145.74 80
8 01/04/2022 20:27:24 0.00,-104.20 0.33,-102.52 190.84 80
9 01/05/2022 08:46:01 -0.01,-104.54 0.68,-107.69 358.17 80
10 01/07/2022 08:33:50 -0.01,-104.55 0.04,-104.73 21.06 80
